Wind_Speed
2 2 2 1 0 1 1 2 2 3 4 4 5 6 6 7 7 7 7 7 7 8 9 8 9 9 9 9 9 9 9 9 8 8 8 7 7 6 6 5 5 5 5
1 2 2 2 1 0 1 2 3 4 4 5 6 6 7 8 8 8 8 8 8 8 8 8 9 9 9 9 9 8 8 9 8 8 8 7 7 7 7 6 6 6 6
2 2 2 2 1 1 2 2 3 4 5 5 6 7 8 8 8 8 8 8 8 8 8 9 9 9 9 9 9 9 9 9 8 8 8 8 8 8 7 7 7 7 7
2 3 3 2 1 0 2 2 3 4 5 6 7 7 8 8 8 8 9 9 8 8 8 9 9 9 9 9 9 9 9 9 9 9 9 9 8 8 8 7 7 7 6
4 3 3 2 1 1 2 3 4 5 6 6 7 8 8 8 8 9 9 9 8 8 8 9 9 9 9 9 9 9 9 10 10 9 9 9 9 8 8 8 7 6 6
4 4 3 2 1 1 2 3 4 5 6 6 7 8 8 8 8 9 9 9 8 8 9 9 9 9 9 9 9 10 10 10 10 10 10 10 9 8 8 8 8 7 6
5 4 3 3 2 1 2 3 4 5 6 6 7 8 8 8 8 9 9 10 9 9 9 9 10 10 10 10 10 10 10 10 10 10 10 10 9 9 8 8 8 7 7
5 5 4 3 2 1 2 3 4 5 5 6 7 7 8 9 9 9 10 10 10 10 10 9 10 9 10 11 10 10 11 10 10 10 10 10 10 9 9 8 8 8 8
5 5 5 4 2 1 2 3 3 4 5 6 7 8 8 9 10 10 10 10 10 10 10 9 9 9 10 10 11 11 10 10 10 10 10 10 10 10 10 9 9 9 9
5 5 5 3 2 2 2 3 3 4 5 6 7 8 8 9 10 10 10 10 10 10 10 10 9 9 10 10 10 10 10 10 10 10 10 10 11 11 11 10 10 10 10
6 5 5 3 3 2 3 3 3 4 5 6 7 8 9 10 10 10 10 10 10 11 10 10 9 9 10 10 10 10 9 9 10 10 10 10 10 11 11 11 11 11 12
6 5 4 4 3 3 3 3 4 4 6 7 8 9 9 10 10 10 11 11 11 11 11 10 10 10 10 10 10 10 9 9 9 10 10 10 11 11 11 12 12 12 13
6 5 4 4 4 3 3 4 4 5 6 7 8 9 9 9 10 11 11 11 11 11 11 11 10 10 10 10 10 10 10 10 10 9 10 11 11 11 12 12 12 13 13
6 5 4 4 3 3 3 4 5 6 7 7 8 9 9 9 10 11 11 12 12 12 11 11 11 10 10 10 10 10 10 10 10 10 10 10 11 12 13 13 13 13 14
6 5 5 4 3 3 3 4 5 6 7 7 8 8 9 9 10 11 12 12 12 12 12 12 11 11 10 10 10 9 9 9 9 10 11 11 11 12 13 13 13 13 14
6 5 4 4 3 3 3 4 5 6 6 7 7 8 9 10 11 11 12 13 13 13 12 12 11 11 10 10 10 10 9 9 9 9 11 12 12 12 13 13 13 14 14
6 5 4 3 3 2 3 3 4 5 6 6 7 8 9 10 11 12 12 13 13 13 13 11 10 10 10 9 9 9 10 9 9 9 10 12 12 13 13 14 14 14 15
6 6 4 3 2 1 2 3 4 5 6 7 8 8 9 10 11 12 13 13 13 13 12 11 10 10 9 8 9 9 9 9 10 10 10 11 12 12 13 14 14 14 14
6 5 4 3 2 1 2 3 4 5 6 8 8 9 10 10 11 12 13 13 13 13 13 12 11 10 9 8 8 8 8 9 9 10 11 11 12 12 13 14 14 15 15
6 5 4 3 2 2 3 4 4 5 7 8 9 9 10 11 12 13 13 14 14 13 13 12 11 10 9 8 8 8 8 8 8 9 10 10 11 11 13 13 14 15 16
6 4 4 4 3 2 3 4 5 6 7 8 9 10 11 11 12 13 14 14 14 13 13 12 11 11 9 8 7 7 7 7 8 9 9 10 10 11 12 13 14 14 15
6 5 4 3 3 3 3 4 5 6 7 8 9 10 11 11 12 13 14 14 14 13 13 12 11 11 10 8 7 6 6 6 7 8 9 9 10 11 12 13 14 14 15
6 5 4 4 4 4 4 4 5 6 7 8 9 10 11 11 12 13 14 14 14 13 13 13 12 11 10 8 7 5 5 5 6 7 8 9 9 11 12 13 14 15 15
6 5 4 4 3 3 4 4 5 6 8 9 9 10 11 12 12 13 14 14 14 13 13 13 12 11 10 9 7 6 4 4 4 6 7 8 9 10 12 13 14 15 15
6 5 5 4 4 4 4 5 6 7 8 9 10 10 11 12 12 13 14 14 13 13 13 12 12 12 11 9 8 6 5 3 3 5 6 7 9 10 11 13 14 15 15
6 6 5 4 4 5 5 5 6 7 8 9 10 10 11 12 12 13 13 13 13 13 12 12 12 12 11 10 8 7 6 4 4 4 5 7 8 9 11 13 14 14 15
Wind_Direction
221 206 206 205 157 20 14 14 8 356 350 350 345 339 337 331 324 317 314 306 302 297 294 287 287 285 280 277 276 275 272 273 271 272 272 272 269 271 269 257 255 251 250
196 204 207 219 205 342 345 346 350 351 346 340 340 337 333 327 322 318 314 310 307 302 296 291 288 287 283 277 276 275 274 273 266 266 266 267 266 265 263 258 255 249 246
200 191 197 193 219 288 326 333 350 356 351 343 340 337 333 326 322 319 316 313 310 304 299 297 291 290 286 281 276 274 272 271 264 260 260 263 263 260 257 256 250 246 246
202 192 191 201 225 285 339 342 352 354 351 344 341 338 334 329 327 323 321 317 312 306 301 297 294 292 287 281 278 275 271 268 263 260 259 259 260 256 252 249 245 244 247
204 199 195 210 209 293 333 333 341 345 348 344 342 339 336 332 330 326 322 318 314 310 305 299 293 290 286 282 279 276 272 268 263 259 258 260 259 255 248 245 241 239 234
207 204 214 209 201 278 324 330 334 340 344 341 339 337 336 334 330 327 326 321 314 310 307 300 292 288 287 284 281 279 274 270 264 260 258 256 251 249 247 242 235 229 223
216 213 214 208 213 275 319 327 331 335 337 337 338 339 338 335 334 332 328 326 320 312 307 301 295 289 288 286 283 280 274 269 265 262 257 250 248 247 242 240 231 222 219
205 199 197 201 213 248 311 322 332 336 338 338 341 341 339 334 331 328 326 326 321 317 313 305 298 294 288 284 282 279 272 272 269 263 255 248 250 246 237 235 228 219 214
197 193 189 193 206 258 307 315 334 334 335 339 340 337 334 330 327 325 323 322 318 317 315 309 301 296 291 284 280 279 273 270 268 261 254 250 247 243 233 228 225 219 212
199 196 193 201 219 268 299 309 323 328 333 339 339 336 332 329 327 326 324 321 318 316 315 311 305 300 292 284 279 275 271 269 267 260 254 251 246 238 231 226 222 217 213
206 204 212 215 235 269 284 293 312 328 337 341 339 335 331 329 329 328 324 322 319 316 313 310 305 300 294 287 279 273 268 268 265 259 253 250 247 238 230 225 222 217 214
211 214 218 217 234 261 285 300 314 325 333 334 333 331 329 330 330 329 323 321 320 317 312 307 303 299 294 287 279 272 268 269 267 258 251 247 245 240 232 226 221 218 215
206 211 216 219 233 264 288 297 313 321 326 327 327 328 329 330 330 330 327 325 323 319 314 308 302 297 292 286 278 272 269 268 265 256 250 245 240 236 231 227 221 218 216
210 210 209 219 240 268 286 295 307 317 323 326 331 332 332 333 332 332 332 331 328 324 318 310 304 299 291 283 276 270 268 264 261 251 245 243 240 234 229 225 220 217 216
207 208 208 220 236 265 292 300 311 323 326 329 333 333 334 335 334 333 333 332 330 326 321 312 305 300 292 282 275 270 267 263 259 251 243 241 237 232 228 225 221 219 218
201 200 208 221 237 263 293 310 323 327 328 329 333 335 335 334 333 334 334 333 332 330 325 318 310 303 293 281 274 268 266 261 259 255 244 237 232 230 227 224 220 220 219
198 199 200 211 228 252 291 316 325 330 329 332 334 334 333 333 335 337 337 336 335 333 330 325 317 309 299 286 277 270 265 263 259 256 247 236 229 229 226 221 221 221 221
203 204 203 211 217 251 300 319 328 336 337 334 333 334 335 336 339 339 339 339 338 336 335 330 323 316 307 294 280 273 266 264 259 254 248 237 229 227 225 221 220 223 223
200 203 208 211 221 271 313 327 329 334 339 339 336 337 339 340 340 340 342 343 342 341 339 336 330 325 315 303 286 276 267 263 258 252 246 238 232 226 224 222 221 223 224
205 206 208 218 236 286 314 328 330 333 337 339 340 342 343 344 343 344 345 346 346 345 343 341 337 330 321 310 293 280 270 263 258 251 242 236 231 227 222 221 221 221 223
204 213 224 229 248 284 308 323 329 333 336 338 341 344 346 348 348 349 348 348 348 348 347 346 343 339 332 322 306 288 273 263 258 248 239 233 230 228 224 221 221 222 223
211 219 230 236 250 279 301 313 325 331 335 340 343 346 348 349 350 351 352 351 351 350 350 349 347 345 341 334 323 303 282 267 256 245 238 234 231 230 226 225 225 225 227
214 224 233 245 256 273 294 313 324 331 338 343 345 345 347 348 350 352 353 354 354 354 353 353 351 349 347 344 336 322 300 283 264 245 238 236 234 233 228 226 228 227 228
216 227 236 247 257 278 297 316 326 330 338 342 342 344 346 348 349 351 353 355 355 356 356 355 355 353 353 353 349 339 321 295 271 254 245 242 241 236 230 228 230 231 231
223 230 238 254 270 285 298 310 319 327 333 337 339 342 346 348 349 350 353 354 355 356 357 357 357 358 357 357 356 351 341 317 284 264 256 251 245 239 233 231 232 235 234
228 231 239 253 268 286 298 307 316 324 329 333 337 340 343 345 346 349 351 353 355 355 355 357 357 357 358 358 358 355 348 334 307 279 267 259 251 242 236 235 234 234 235
Height
5875 5875 5876 5876 5876 5876 5876 5876 5876 5876 5876 5875 5875 5875 5874 5873 5873 5873 5872 5872 5872 5872 5872 5872 5872 5872 5873 5873 5873 5874 5874 5875 5876 5876 5877 5877 5878 5879 5879 5880 5881 5882 5883
5874 5875 5875 5876 5876 5876 5876 5876 5876 5876 5875 5875 5875 5874 5873 5873 5872 5872 5871 5871 5870 5870 5870 5870 5871 5871 5871 5872 5872 5872 5873 5873 5874 5875 5875 5876 5877 5877 5878 5879 5880 5880 5881
5874 5874 5875 5876 5876 5876 5876 5876 5876 5876 5875 5875 5874 5873 5873 5872 5871 5871 5870 5870 5869 5869 5869 5869 5869 5869 5870 5870 5871 5871 5871 5872 5872 5873 5874 5875 5875 5876 5877 5878 5878 5879 5879
5874 5875 5875 5876 5876 5876 5876 5876 5875 5875 5875 5874 5873 5873 5872 5871 5871 5870 5869 5869 5868 5868 5868 5868 5868 5868 5868 5868 5869 5869 5869 5870 5871 5871 5872 5873 5874 5874 5875 5876 5877 5877 5878
5874 5875 5875 5875 5876 5876 5876 5875 5875 5875 5874 5874 5873 5872 5871 5871 5870 5869 5868 5868 5867 5867 5866 5866 5866 5866 5866 5867 5867 5867 5868 5868 5869 5869 5870 5871 5872 5873 5874 5875 5875 5876 5877
5874 5874 5875 5875 5875 5875 5875 5875 5875 5875 5874 5873 5872 5872 5871 5870 5869 5868 5867 5866 5866 5865 5865 5865 5865 5865 5865 5865 5865 5865 5866 5866 5867 5867 5868 5869 5870 5871 5872 5873 5874 5875 5876
5873 5874 5874 5875 5875 5875 5875 5875 5875 5874 5873 5873 5872 5871 5870 5869 5868 5867 5866 5865 5865 5864 5864 5863 5863 5863 5863 5863 5863 5863 5864 5864 5865 5865 5866 5867 5868 5869 5870 5871 5873 5874 5875
5872 5873 5874 5874 5875 5875 5875 5875 5874 5874 5873 5872 5872 5871 5870 5869 5868 5867 5865 5864 5864 5863 5862 5862 5861 5861 5861 5861 5861 5861 5862 5862 5862 5863 5864 5865 5865 5866 5868 5870 5871 5873 5874
5872 5873 5874 5874 5875 5875 5874 5874 5874 5873 5873 5872 5871 5870 5869 5868 5867 5866 5864 5863 5863 5862 5861 5860 5859 5859 5859 5858 5859 5859 5859 5860 5860 5861 5862 5863 5864 5865 5866 5868 5870 5871 5873
5872 5873 5873 5874 5874 5874 5874 5874 5873 5873 5872 5871 5870 5869 5868 5867 5866 5864 5863 5862 5861 5860 5859 5858 5857 5857 5856 5856 5856 5856 5857 5858 5858 5859 5859 5861 5862 5863 5864 5866 5868 5870 5871
5871 5872 5873 5873 5873 5873 5873 5873 5873 5872 5871 5871 5870 5868 5867 5866 5865 5863 5862 5861 5860 5858 5857 5856 5855 5855 5854 5854 5854 5854 5855 5855 5856 5856 5857 5858 5860 5861 5862 5864 5866 5868 5870
5871 5872 5872 5872 5873 5873 5873 5873 5872 5872 5871 5870 5869 5868 5866 5865 5864 5862 5861 5859 5858 5857 5855 5854 5853 5852 5852 5851 5851 5852 5852 5853 5853 5854 5855 5856 5858 5859 5860 5862 5864 5866 5868
5870 5871 5871 5872 5872 5872 5872 5872 5872 5871 5870 5869 5868 5867 5865 5864 5863 5861 5859 5858 5856 5854 5853 5852 5851 5850 5849 5849 5849 5849 5850 5850 5851 5851 5853 5854 5855 5857 5858 5860 5862 5864 5866
5869 5870 5871 5871 5872 5872 5872 5872 5871 5870 5870 5868 5867 5866 5864 5863 5861 5860 5858 5856 5854 5852 5851 5849 5848 5847 5847 5846 5846 5846 5847 5848 5848 5849 5850 5851 5853 5854 5856 5858 5860 5862 5864
5869 5869 5870 5870 5871 5871 5871 5871 5870 5870 5869 5867 5866 5865 5863 5862 5860 5859 5857 5854 5852 5850 5848 5847 5846 5844 5844 5843 5843 5844 5844 5845 5846 5847 5848 5849 5851 5852 5854 5856 5858 5860 5862
5868 5869 5869 5870 5870 5871 5871 5870 5870 5869 5868 5867 5865 5864 5863 5861 5859 5857 5855 5853 5851 5848 5846 5844 5843 5842 5841 5840 5841 5841 5841 5842 5843 5844 5845 5846 5848 5850 5852 5854 5856 5858 5860
5867 5868 5869 5869 5870 5870 5870 5870 5869 5868 5867 5866 5865 5863 5862 5860 5858 5856 5854 5851 5849 5846 5844 5842 5840 5839 5838 5838 5838 5838 5839 5839 5840 5841 5842 5844 5845 5847 5849 5851 5854 5856 5858
5867 5868 5868 5869 5869 5869 5869 5869 5868 5867 5867 5865 5864 5863 5861 5859 5857 5855 5852 5850 5847 5845 5842 5840 5838 5837 5836 5835 5835 5835 5836 5837 5837 5838 5840 5841 5843 5845 5847 5849 5851 5853 5855
5866 5867 5868 5868 5869 5869 5869 5868 5868 5867 5866 5865 5863 5862 5860 5858 5856 5854 5851 5849 5846 5843 5841 5839 5837 5835 5834 5833 5833 5833 5833 5834 5835 5836 5837 5838 5840 5842 5844 5846 5848 5851 5853
5866 5867 5867 5868 5868 5868 5868 5868 5867 5866 5865 5864 5863 5861 5859 5857 5855 5853 5850 5847 5845 5842 5839 5837 5835 5833 5832 5831 5830 5830 5831 5832 5832 5833 5835 5836 5838 5840 5842 5844 5846 5848 5850
5865 5866 5867 5867 5867 5868 5868 5867 5867 5866 5865 5864 5862 5860 5858 5856 5854 5852 5849 5846 5844 5841 5838 5836 5834 5832 5830 5829 5828 5828 5829 5829 5830 5831 5832 5834 5835 5837 5839 5841 5844 5846 5848
5865 5866 5866 5866 5867 5867 5867 5867 5866 5865 5864 5863 5861 5859 5858 5855 5853 5851 5848 5846 5843 5840 5838 5835 5833 5831 5829 5827 5827 5827 5827 5828 5828 5829 5830 5831 5833 5835 5837 5839 5841 5843 5845
5864 5865 5865 5866 5866 5866 5866 5866 5865 5864 5863 5862 5860 5859 5857 5855 5853 5850 5848 5845 5842 5840 5837 5834 5832 5830 5828 5827 5826 5826 5825 5826 5826 5827 5828 5830 5831 5833 5835 5837 5839 5841 5843
5863 5864 5864 5865 5865 5865 5865 5865 5864 5863 5862 5861 5859 5858 5856 5854 5852 5850 5847 5844 5842 5839 5837 5834 5832 5830 5828 5826 5825 5824 5824 5824 5825 5825 5827 5828 5829 5830 5832 5834 5836 5838 5839
5862 5863 5863 5864 5864 5864 5864 5864 5863 5862 5861 5860 5859 5857 5855 5853 5851 5849 5847 5844 5842 5839 5837 5834 5832 5830 5828 5826 5825 5824 5823 5823 5824 5824 5825 5826 5827 5828 5829 5831 5833 5835 5837
5861 5862 5863 5863 5863 5863 5863 5863 5862 5861 5860 5859 5858 5856 5854 5853 5851 5849 5846 5844 5841 5839 5837 5835 5832 5830 5828 5827 5825 5824 5823 5823 5823 5823 5823 5824 5825 5826 5827 5828 5830 5832 5833